Location: Bothwell
(42.3833°S, 147.0000°E)
Time: 23:00:49
(UTC+10:00)

CUTE 1.7 + AOD 2 - Pass Details

Date: 31 January 2023
Orbit: 584 x 601 km, 97.7° (Epoch: 02 April)

Event Time Altitude Azimuth Distance (km) Brightness Sun altitude
Exits shadow 02:39:29 - 78° (ENE) 2,238 ? -27.6°
Reaches altitude 10° 02:40:54 10° 93° (E) 1,930 ? -27.5°
Maximum altitude 02:42:38 12° 118° (ESE) 1,781 ? -27.4°
Drops below altitude 10° 02:44:23 10° 143° (SE) 1,943 ? -27.3°
Sets 02:47:45 0° 171° (S) 2,858 ? -27.1°
